Date,TemperatureHighF,TemperatureAvgF,TemperatureLowF,DewpointHighF,DewpointAvgF,DewpointLowF,HumidityHigh,HumidityAvg,HumidityLow,PressureMaxIn,PressureMinIn,WindSpeedMaxMPH,WindSpeedAvgMPH,GustSpeedMaxMPH,PrecipitationSumIn
2013-6-1,91,79,69,74,70,-100,94,78,52,30.01,29.91,2,1,11,0.00
2013-6-2,91,76,69,74,70,68,97,84,53,29.96,29.80,5,1,15,1.25
2013-6-3,89,76,68,75,71,67,98,86,59,29.91,29.81,4,0,9,1.25
2013-6-4,95,79,69,75,72,68,98,81,45,29.93,29.85,4,0,12,0.00
2013-6-5,85,75,67,75,71,66,97,89,70,29.95,29.84,5,1,11,0.48
2013-6-6,80,72,68,74,70,67,98,93,80,29.88,29.68,3,0,10,0.72
2013-6-7,84,74,66,72,69,65,98,86,64,29.86,29.68,4,1,13,0.01
2013-6-8,89,76,63,75,69,62,98,82,56,30.02,29.86,3,0,7,0.01
2013-6-9,74,71,70,73,70,69,98,96,93,30.04,29.93,3,0,11,0.99
2013-6-10,79,73,70,74,71,69,99,94,83,30.05,29.95,5,1,12,0.45
2013-6-11,91,79,70,77,74,69,99,84,55,30.06,29.95,3,0,7,0.03
2013-6-12,93,82,73,79,75,72,98,82,56,30.04,29.95,2,0,6,0.00
2013-6-13,93,83,73,77,74,72,96,77,54,29.97,29.80,4,1,11,0.00
2013-6-14,90,79,69,76,72,66,97,82,55,29.91,29.78,3,0,8,0.15
2013-6-15,90,79,67,72,69,64,92,73,50,30.01,29.90,5,1,10,0.01
2013-6-16,93,81,72,76,72,69,96,78,50,30.05,29.94,4,1,11,0.17
2013-6-17,85,77,72,79,74,70,98,92,77,29.99,29.91,6,1,13,0.55
2013-6-18,88,78,71,77,73,69,98,88,67,29.96,29.84,11,2,29,0.37
2013-6-19,83,75,71,76,72,70,98,89,71,30.00,29.88,4,1,8,0.39
2013-6-20,87,76,68,75,71,67,98,87,65,30.07,29.98,3,0,8,0.08
2013-6-22,88,82,73,75,72,70,89,72,61,30.10,29.99,4,1,9,0.00
2013-6-23,85,75,69,76,72,68,98,90,69,30.10,30.02,5,0,12,0.02
2013-6-24,93,76,70,76,71,69,98,86,50,30.15,30.05,8,0,17,0.11
2013-6-25,90,78,69,77,72,68,99,85,61,30.12,29.99,4,0,8,0.11
2013-6-26,90,81,70,76,72,69,98,78,54,30.06,29.93,5,1,8,0.00
2013-6-27,89,81,73,78,75,71,97,82,64,29.98,29.84,8,2,12,0.00
2013-6-28,93,80,72,78,75,70,96,86,56,29.86,29.72,11,2,24,0.03
2013-6-29,88,76,68,76,72,67,98,86,64,29.80,29.64,13,2,25,1.76
2013-6-30,84,76,71,76,73,70,98,91,74,29.74,29.67,3,0,5,0.72